TimeMDT,TemperatureF,Dew PointF,Humidity,Sea Level PressureIn,VisibilityMPH,Wind Direction,Wind SpeedMPH,Gust SpeedMPH,PrecipitationIn,Events,Conditions,WindDirDegrees,DateUTC
12:53 AM,25.0,14.0,63,30.33,10.0,ESE,3.5,-,N/A,,Clear,110,2012-10-07 06:53:00
1:53 AM,21.9,12.9,68,30.32,10.0,SE,3.5,-,N/A,,Clear,140,2012-10-07 07:53:00
2:53 AM,21.0,12.9,71,30.32,10.0,Calm,Calm,-,N/A,,Clear,0,2012-10-07 08:53:00
3:53 AM,19.9,10.9,68,30.29,10.0,Calm,Calm,-,N/A,,Clear,0,2012-10-07 09:53:00
4:53 AM,18.0,12.0,78,30.30,10.0,SSE,3.5,-,N/A,,Clear,150,2012-10-07 10:53:00
5:53 AM,19.0,12.0,74,30.30,10.0,Calm,Calm,-,N/A,,Clear,0,2012-10-07 11:53:00
6:53 AM,18.0,10.9,74,30.30,10.0,Calm,Calm,-,N/A,,Clear,0,2012-10-07 12:53:00
7:53 AM,16.0,10.9,81,30.32,10.0,ESE,3.5,-,N/A,,Clear,110,2012-10-07 13:53:00
8:53 AM,21.0,15.1,78,30.31,10.0,Calm,Calm,-,N/A,,Clear,0,2012-10-07 14:53:00
9:53 AM,30.0,19.0,64,30.29,10.0,Calm,Calm,-,N/A,,Clear,0,2012-10-07 15:53:00
10:53 AM,37.9,19.9,48,30.26,10.0,Calm,Calm,-,N/A,,Clear,0,2012-10-07 16:53:00
11:53 AM,48.0,21.9,36,30.19,10.0,Calm,Calm,-,N/A,,Clear,0,2012-10-07 17:53:00
12:53 PM,52.0,21.0,30,30.15,10.0,North,3.5,-,N/A,,Clear,10,2012-10-07 18:53:00
1:53 PM,55.9,21.0,26,30.12,10.0,NNE,6.9,-,N/A,,Clear,20,2012-10-07 19:53:00
2:53 PM,57.9,18.0,21,30.09,10.0,NW,9.2,-,N/A,,Clear,310,2012-10-07 20:53:00
3:53 PM,59.0,18.0,20,30.07,10.0,NW,12.7,-,N/A,,Clear,310,2012-10-07 21:53:00
4:53 PM,60.1,19.9,21,30.06,10.0,NNW,9.2,-,N/A,,Clear,330,2012-10-07 22:53:00
5:53 PM,57.0,21.0,25,30.05,10.0,West,9.2,-,N/A,,Clear,280,2012-10-07 23:53:00
6:53 PM,53.1,21.9,30,30.06,10.0,WNW,9.2,-,N/A,,Clear,300,2012-10-08 00:53:00
7:53 PM,48.0,23.0,37,30.10,10.0,NW,4.6,-,N/A,,Clear,310,2012-10-08 01:53:00
8:53 PM,46.0,23.0,40,30.09,10.0,Calm,Calm,-,N/A,,Clear,0,2012-10-08 02:53:00
9:53 PM,36.0,19.0,50,30.11,10.0,SE,5.8,-,N/A,,Clear,140,2012-10-08 03:53:00
10:53 PM,33.1,19.0,56,30.09,10.0,SE,4.6,-,N/A,,Clear,130,2012-10-08 04:53:00
11:53 PM,30.9,18.0,59,30.06,10.0,SSE,3.5,-,N/A,,Clear,150,2012-10-08 05:53:00